Time,TemperatureF,DewpointF,PressureIn,WindDirection,WindDirectionDegrees,WindSpeedMPH,WindSpeedGustMPH,Humidity,HourlyPrecipIn,Conditions,Clouds,dailyrainin,SoftwareType,DateUTC
2013-03-04 00:00:00,28.2,26.4,29.60,WSW,247,5.5,10.1,93,0.00,,,0.00,WUHU21623XXSP,2013-03-04 05:00:00,
2013-03-04 00:01:00,28.2,26.4,29.60,WSW,247,2.8,10.1,93,0.00,,,0.00,WUHU21623XXSP,2013-03-04 05:01:00,
2013-03-04 00:06:00,28.0,26.2,29.60,SW,225,4.0,10.2,93,0.00,,,0.00,WUHU21623XXSP,2013-03-04 05:06:00,
2013-03-04 00:11:00,28.0,26.2,29.60,WSW,247,2.2,10.2,93,0.00,,,0.00,WUHU21623XXSP,2013-03-04 05:11:00,
2013-03-04 00:16:00,28.0,26.2,29.60,WNW,292,6.0,9.8,93,0.00,,,0.00,WUHU21623XXSP,2013-03-04 05:16:00,
2013-03-04 00:21:00,28.0,26.2,29.60,WNW,292,5.6,9.1,93,0.00,,,0.00,WUHU21623XXSP,2013-03-04 05:21:00,
2013-03-04 00:26:00,28.0,26.2,29.60,WSW,247,1.1,7.8,93,0.00,,,0.00,WUHU21623XXSP,2013-03-04 05:26:00,
2013-03-04 00:31:00,28.0,26.2,29.60,WSW,247,0.0,7.2,93,0.00,,,0.00,WUHU21623XXSP,2013-03-04 05:31:00,
2013-03-04 00:36:00,28.0,26.2,29.60,WSW,247,2.9,6.7,93,0.00,,,0.00,WUHU21623XXSP,2013-03-04 05:36:00,
2013-03-04 00:41:00,27.9,26.1,29.60,WSW,247,1.3,6.7,93,0.00,,,0.00,WUHU21623XXSP,2013-03-04 05:41:00,
2013-03-04 00:46:00,28.0,26.2,29.60,SSW,202,1.1,5.9,93,0.00,,,0.00,WUHU21623XXSP,2013-03-04 05:46:00,
2013-03-04 00:51:00,27.9,26.1,29.60,SSW,202,0.0,5.9,93,0.00,,,0.00,WUHU21623XXSP,2013-03-04 05:51:00,
2013-03-04 00:56:00,27.9,26.1,29.60,WSW,247,0.0,4.2,93,0.00,,,0.00,WUHU21623XXSP,2013-03-04 05:56:00,
2013-03-04 01:01:00,27.9,26.1,29.60,WSW,247,0.5,4.2,93,0.00,,,0.00,WUHU21623XXSP,2013-03-04 06:01:00,
2013-03-04 01:06:00,27.9,26.1,29.61,WSW,247,2.3,4.4,93,0.00,,,0.00,WUHU21623XXSP,2013-03-04 06:06:00,
2013-03-04 01:11:00,27.9,26.1,29.60,SW,225,1.1,9.4,93,0.00,,,0.00,WUHU21623XXSP,2013-03-04 06:11:00,
2013-03-04 01:16:00,27.9,26.1,29.61,SSW,202,0.0,9.4,93,0.00,,,0.00,WUHU21623XXSP,2013-03-04 06:16:00,
2013-03-04 01:21:00,27.9,26.1,29.61,SSW,202,1.9,3.9,93,0.00,,,0.00,WUHU21623XXSP,2013-03-04 06:21:00,
2013-03-04 01:26:00,27.7,25.9,29.61,SSW,202,2.1,3.4,93,0.00,,,0.00,WUHU21623XXSP,2013-03-04 06:26:00,
2013-03-04 01:31:00,27.9,26.1,29.60,SW,225,1.8,8.8,93,0.00,,,0.00,WUHU21623XXSP,2013-03-04 06:31:00,
2013-03-04 01:36:00,27.7,25.9,29.61,WSW,247,0.0,8.8,93,0.00,,,0.00,WUHU21623XXSP,2013-03-04 06:36:00,
2013-03-04 01:41:00,27.5,25.7,29.60,South,180,0.0,7.2,93,0.00,,,0.00,WUHU21623XXSP,2013-03-04 06:41:00,
2013-03-04 01:46:00,27.5,25.7,29.60,WNW,292,0.4,10.6,93,0.00,,,0.00,WUHU21623XXSP,2013-03-04 06:46:00,
2013-03-04 01:51:00,27.3,25.1,29.60,West,270,2.6,10.6,92,0.00,,,0.00,WUHU21623XXSP,2013-03-04 06:51:00,
2013-03-04 01:56:00,27.3,25.1,29.60,West,270,6.9,11.3,92,0.00,,,0.00,WUHU21623XXSP,2013-03-04 06:56:00,
2013-03-04 02:01:00,27.3,25.1,29.60,WNW,292,4.4,11.3,92,0.00,,,0.00,WUHU21623XXSP,2013-03-04 07:01:00,
2013-03-04 02:06:00,27.1,24.9,29.60,WNW,292,1.8,11.1,92,0.00,,,0.00,WUHU21623XXSP,2013-03-04 07:06:00,
2013-03-04 02:11:00,27.3,25.1,29.60,West,270,3.8,9.6,92,0.00,,,0.00,WUHU21623XXSP,2013-03-04 07:11:00,
2013-03-04 02:16:00,27.1,24.9,29.60,West,270,1.5,9.4,92,0.00,,,0.00,WUHU21623XXSP,2013-03-04 07:16:00,
2013-03-04 02:21:00,27.0,24.8,29.60,WNW,292,3.1,6.9,92,0.00,,,0.00,WUHU21623XXSP,2013-03-04 07:21:00,
2013-03-04 02:26:00,27.1,24.9,29.60,SW,225,2.6,6.9,92,0.00,,,0.00,WUHU21623XXSP,2013-03-04 07:26:00,
2013-03-04 02:31:00,27.0,24.8,29.59,WNW,292,4.9,8.6,92,0.00,,,0.00,WUHU21623XXSP,2013-03-04 07:31:00,
2013-03-04 02:36:00,27.0,24.8,29.59,WNW,292,6.1,8.6,92,0.00,,,0.00,WUHU21623XXSP,2013-03-04 07:36:00,
2013-03-04 02:41:00,27.0,24.8,29.59,WSW,247,8.5,9.2,92,0.00,,,0.00,WUHU21623XXSP,2013-03-04 07:41:00,
2013-03-04 02:46:00,26.8,24.6,29.59,West,270,2.9,11.0,92,0.00,,,0.00,WUHU21623XXSP,2013-03-04 07:46:00,
2013-03-04 02:51:00,26.8,24.2,29.59,SW,225,8.6,11.0,90,0.00,,,0.00,WUHU21623XXSP,2013-03-04 07:51:00,
2013-03-04 02:56:00,26.8,24.2,29.59,West,270,4.9,11.9,90,0.00,,,0.00,WUHU21623XXSP,2013-03-04 07:56:00,
2013-03-04 03:01:00,26.6,24.0,29.59,SW,225,1.6,12.0,90,0.00,,,0.00,WUHU21623XXSP,2013-03-04 08:01:00,
2013-03-04 03:06:00,26.6,24.0,29.59,West,270,1.7,12.0,90,0.00,,,0.00,WUHU21623XXSP,2013-03-04 08:06:00,
2013-03-04 03:11:00,26.4,23.8,29.60,West,270,1.5,11.3,90,0.00,,,0.00,WUHU21623XXSP,2013-03-04 08:11:00,
2013-03-04 03:16:00,26.4,23.8,29.59,West,270,1.8,6.4,90,0.00,,,0.00,WUHU21623XXSP,2013-03-04 08:16:00,
2013-03-04 03:21:00,26.4,23.8,29.59,West,270,2.0,9.8,90,0.00,,,0.00,WUHU21623XXSP,2013-03-04 08:21:00,
2013-03-04 03:26:00,26.2,23.2,29.59,WSW,247,7.5,13.9,89,0.00,,,0.00,WUHU21623XXSP,2013-03-04 08:26:00,
2013-03-04 03:31:00,26.2,23.2,29.59,West,270,10.0,14.2,89,0.00,,,0.00,WUHU21623XXSP,2013-03-04 08:31:00,
2013-03-04 03:36:00,26.1,23.1,29.60,SW,225,6.2,14.2,89,0.00,,,0.00,WUHU21623XXSP,2013-03-04 08:36:00,
2013-03-04 03:41:00,26.1,23.1,29.60,WNW,292,1.9,11.2,89,0.00,,,0.00,WUHU21623XXSP,2013-03-04 08:41:00,
2013-03-04 03:46:00,26.1,23.1,29.60,West,270,5.7,13.7,89,0.00,,,0.00,WUHU21623XXSP,2013-03-04 08:46:00,
2013-03-04 03:51:00,26.1,23.1,29.60,WSW,247,5.3,13.7,89,0.00,,,0.00,WUHU21623XXSP,2013-03-04 08:51:00,
2013-03-04 03:56:00,25.9,22.9,29.60,WNW,292,7.1,15.0,89,0.00,,,0.00,WUHU21623XXSP,2013-03-04 08:56:00,
2013-03-04 04:01:00,25.9,22.9,29.60,West,270,5.0,15.0,89,0.00,,,0.00,WUHU21623XXSP,2013-03-04 09:01:00,
2013-03-04 04:06:00,25.7,22.7,29.60,West,270,4.4,11.7,89,0.00,,,0.00,WUHU21623XXSP,2013-03-04 09:06:00,
2013-03-04 04:11:00,25.7,22.7,29.61,WSW,247,3.8,11.7,89,0.00,,,0.00,WUHU21623XXSP,2013-03-04 09:11:00,
2013-03-04 04:16:00,25.5,22.5,29.60,West,270,3.2,14.7,89,0.00,,,0.00,WUHU21623XXSP,2013-03-04 09:16:00,
2013-03-04 04:21:00,25.5,22.1,29.60,WNW,292,0.0,15.8,87,0.00,,,0.00,WUHU21623XXSP,2013-03-04 09:21:00,
2013-03-04 04:26:00,25.5,22.1,29.61,SW,225,0.0,15.8,87,0.00,,,0.00,WUHU21623XXSP,2013-03-04 09:26:00,
2013-03-04 04:31:00,25.5,22.1,29.60,WSW,247,2.3,8.5,87,0.00,,,0.00,WUHU21623XXSP,2013-03-04 09:31:00,
2013-03-04 04:36:00,25.5,22.1,29.61,SSW,202,7.9,8.7,87,0.00,,,0.00,WUHU21623XXSP,2013-03-04 09:36:00,
2013-03-04 04:41:00,25.5,22.1,29.60,WNW,292,5.4,10.3,87,0.00,,,0.00,WUHU21623XXSP,2013-03-04 09:41:00,
2013-03-04 04:46:00,25.5,22.1,29.60,WSW,247,7.7,10.7,87,0.00,,,0.00,WUHU21623XXSP,2013-03-04 09:46:00,
2013-03-04 04:51:00,25.3,21.9,29.60,West,270,5.5,15.5,87,0.00,,,0.00,WUHU21623XXSP,2013-03-04 09:51:00,
2013-03-04 04:56:00,25.2,21.8,29.60,West,270,9.8,18.2,87,0.00,,,0.00,WUHU21623XXSP,2013-03-04 09:56:00,
2013-03-04 05:01:00,25.3,21.9,29.60,West,270,1.7,18.2,87,0.00,,,0.00,WUHU21623XXSP,2013-03-04 10:01:00,
2013-03-04 05:06:00,25.2,21.8,29.60,East,90,1.9,12.7,87,0.00,,,0.00,WUHU21623XXSP,2013-03-04 10:06:00,
2013-03-04 05:11:00,25.2,21.8,29.60,West,270,1.5,12.7,87,0.00,,,0.00,WUHU21623XXSP,2013-03-04 10:11:00,
2013-03-04 05:16:00,25.0,21.6,29.60,West,270,0.0,11.1,87,0.00,,,0.00,WUHU21623XXSP,2013-03-04 10:16:00,
2013-03-04 05:21:00,25.2,21.8,29.60,WNW,292,4.9,11.1,87,0.00,,,0.00,WUHU21623XXSP,2013-03-04 10:21:00,
2013-03-04 05:26:00,25.2,22.2,29.59,WSW,247,8.3,14.3,89,0.00,,,0.00,WUHU21623XXSP,2013-03-04 10:26:00,
2013-03-04 05:31:00,25.0,22.0,29.59,WNW,292,12.5,14.3,89,0.00,,,0.00,WUHU21623XXSP,2013-03-04 10:31:00,
2013-03-04 05:36:00,25.0,22.0,29.59,WNW,292,6.1,16.3,89,0.00,,,0.00,WUHU21623XXSP,2013-03-04 10:36:00,
2013-03-04 05:41:00,25.0,22.0,29.59,West,270,6.1,17.9,89,0.00,,,0.00,WUHU21623XXSP,2013-03-04 10:41:00,
2013-03-04 05:46:00,25.0,22.0,29.60,SW,225,7.6,17.9,89,0.00,,,0.00,WUHU21623XXSP,2013-03-04 10:46:00,
2013-03-04 05:51:00,25.0,22.0,29.60,West,270,8.2,16.7,89,0.00,,,0.00,WUHU21623XXSP,2013-03-04 10:51:00,
2013-03-04 05:56:00,25.0,22.0,29.60,West,270,6.7,16.7,89,0.00,,,0.00,WUHU21623XXSP,2013-03-04 10:56:00,
2013-03-04 06:01:00,25.0,22.0,29.60,WNW,292,7.0,14.8,89,0.00,,,0.00,WUHU21623XXSP,2013-03-04 11:01:00,
2013-03-04 06:06:00,25.0,22.0,29.60,West,270,6.3,14.8,89,0.00,,,0.00,WUHU21623XXSP,2013-03-04 11:06:00,
2013-03-04 06:11:00,25.0,22.0,29.60,WNW,292,7.2,13.3,89,0.00,,,0.00,WUHU21623XXSP,2013-03-04 11:11:00,
2013-03-04 06:16:00,25.0,22.0,29.60,SW,225,6.2,15.7,89,0.00,,,0.00,WUHU21623XXSP,2013-03-04 11:16:00,
2013-03-04 06:21:00,25.0,22.0,29.60,WSW,247,10.9,17.9,89,0.00,,,0.00,WUHU21623XXSP,2013-03-04 11:21:00,
2013-03-04 06:26:00,24.8,21.8,29.60,WSW,247,6.4,17.9,89,0.00,,,0.00,WUHU21623XXSP,2013-03-04 11:26:00,
2013-03-04 06:31:00,25.0,22.0,29.60,West,270,3.7,15.0,89,0.00,,,0.00,WUHU21623XXSP,2013-03-04 11:31:00,
2013-03-04 06:36:00,25.0,22.0,29.60,West,270,4.4,13.8,89,0.00,,,0.00,WUHU21623XXSP,2013-03-04 11:36:00,
2013-03-04 06:41:00,25.2,22.2,29.60,SW,225,4.8,14.5,89,0.00,,,0.00,WUHU21623XXSP,2013-03-04 11:41:00,
2013-03-04 06:46:00,25.2,22.2,29.61,WSW,247,3.0,14.5,89,0.00,,,0.00,WUHU21623XXSP,2013-03-04 11:46:00,
2013-03-04 06:51:00,25.3,22.3,29.61,South,180,6.3,12.0,89,0.00,,,0.00,WUHU21623XXSP,2013-03-04 11:51:00,
2013-03-04 06:56:00,25.5,22.5,29.61,West,270,3.8,10.1,89,0.00,,,0.00,WUHU21623XXSP,2013-03-04 11:56:00,
2013-03-04 07:01:00,25.7,22.7,29.61,WSW,247,4.9,13.1,89,0.00,,,0.00,WUHU21623XXSP,2013-03-04 12:01:00,
2013-03-04 07:06:00,25.7,22.7,29.61,SSW,202,5.3,13.1,89,0.00,,,0.00,WUHU21623XXSP,2013-03-04 12:06:00,
2013-03-04 07:11:00,26.1,23.1,29.61,SW,225,5.3,14.1,89,0.00,,,0.00,WUHU21623XXSP,2013-03-04 12:11:00,
2013-03-04 07:16:00,26.1,22.7,29.61,WSW,247,5.7,14.1,87,0.00,,,0.00,WUHU21623XXSP,2013-03-04 12:16:00,
2013-03-04 07:21:00,26.1,22.7,29.61,West,270,6.2,12.7,87,0.00,,,0.00,WUHU21623XXSP,2013-03-04 12:21:00,
2013-03-04 07:26:00,26.2,22.8,29.61,WNW,292,6.3,12.7,87,0.00,,,0.00,WUHU21623XXSP,2013-03-04 12:26:00,
2013-03-04 07:31:00,26.2,22.8,29.61,West,270,7.7,14.3,87,0.00,,,0.00,WUHU21623XXSP,2013-03-04 12:31:00,
2013-03-04 07:36:00,26.4,23.0,29.61,West,270,3.5,14.3,87,0.00,,,0.00,WUHU21623XXSP,2013-03-04 12:36:00,
2013-03-04 07:41:00,26.8,23.4,29.61,West,270,3.0,10.8,87,0.00,,,0.00,WUHU21623XXSP,2013-03-04 12:41:00,
2013-03-04 07:46:00,26.8,23.4,29.61,WNW,292,8.0,15.2,87,0.00,,,0.00,WUHU21623XXSP,2013-03-04 12:46:00,
2013-03-04 07:51:00,26.8,23.4,29.61,SSW,202,7.9,15.2,87,0.00,,,0.00,WUHU21623XXSP,2013-03-04 12:51:00,
2013-03-04 07:56:00,27.0,23.6,29.61,West,270,3.1,11.2,87,0.00,,,0.00,WUHU21623XXSP,2013-03-04 12:56:00,
2013-03-04 08:01:00,27.0,23.6,29.61,West,270,6.2,11.2,87,0.00,,,0.00,WUHU21623XXSP,2013-03-04 13:01:00,
2013-03-04 08:06:00,27.1,23.3,29.60,West,270,6.9,10.7,86,0.00,,,0.00,WUHU21623XXSP,2013-03-04 13:06:00,
2013-03-04 08:11:00,27.3,23.5,29.60,SW,225,7.5,13.4,86,0.00,,,0.00,WUHU21623XXSP,2013-03-04 13:11:00,
2013-03-04 08:16:00,27.5,23.7,29.60,SW,225,6.9,13.4,86,0.00,,,0.00,WUHU21623XXSP,2013-03-04 13:16:00,
2013-03-04 08:21:00,27.5,23.7,29.60,WNW,292,5.7,13.4,86,0.00,,,0.00,WUHU21623XXSP,2013-03-04 13:21:00,
2013-03-04 08:26:00,27.7,23.9,29.60,West,270,9.7,13.8,86,0.00,,,0.00,WUHU21623XXSP,2013-03-04 13:26:00,
2013-03-04 08:31:00,27.7,23.9,29.60,SSW,202,1.3,13.8,86,0.00,,,0.00,WUHU21623XXSP,2013-03-04 13:31:00,
2013-03-04 08:36:00,27.9,23.7,29.60,West,270,2.5,13.5,84,0.00,,,0.00,WUHU21623XXSP,2013-03-04 13:36:00,
2013-03-04 08:41:00,28.0,23.8,29.60,WSW,247,6.4,19.1,84,0.00,,,0.00,WUHU21623XXSP,2013-03-04 13:41:00,
2013-03-04 08:46:00,28.0,23.8,29.61,WSW,247,6.6,19.1,84,0.00,,,0.00,WUHU21623XXSP,2013-03-04 13:46:00,
2013-03-04 08:51:00,28.0,23.8,29.61,WSW,247,4.8,11.1,84,0.00,,,0.00,WUHU21623XXSP,2013-03-04 13:51:00,
2013-03-04 08:56:00,28.6,24.4,29.60,SW,225,4.1,11.1,84,0.00,,,0.00,WUHU21623XXSP,2013-03-04 13:56:00,
2013-03-04 09:01:00,28.8,24.6,29.60,West,270,4.0,14.7,84,0.00,,,0.00,WUHU21623XXSP,2013-03-04 14:01:00,
2013-03-04 09:06:00,28.9,24.7,29.60,WNW,292,6.0,15.3,84,0.00,,,0.00,WUHU21623XXSP,2013-03-04 14:06:00,
2013-03-04 09:11:00,29.1,24.4,29.60,WSW,247,4.5,19.2,83,0.00,,,0.00,WUHU21623XXSP,2013-03-04 14:11:00,
2013-03-04 09:16:00,29.3,24.6,29.60,WSW,247,4.0,19.2,83,0.00,,,0.00,WUHU21623XXSP,2013-03-04 14:16:00,
2013-03-04 09:21:00,29.5,24.8,29.60,SW,225,2.3,13.5,83,0.00,,,0.00,WUHU21623XXSP,2013-03-04 14:21:00,
2013-03-04 09:26:00,30.0,25.3,29.60,SSW,202,4.0,13.5,83,0.00,,,0.00,WUHU21623XXSP,2013-03-04 14:26:00,
2013-03-04 09:31:00,30.4,25.7,29.60,SW,225,9.7,12.6,83,0.00,,,0.00,WUHU21623XXSP,2013-03-04 14:31:00,
2013-03-04 09:36:00,30.7,26.0,29.60,West,270,4.8,14.4,83,0.00,,,0.00,WUHU21623XXSP,2013-03-04 14:36:00,
2013-03-04 09:41:00,30.9,25.8,29.60,WNW,292,7.2,14.4,81,0.00,,,0.00,WUHU21623XXSP,2013-03-04 14:41:00,
2013-03-04 09:46:00,31.1,26.0,29.60,SSW,202,6.7,12.8,81,0.00,,,0.00,WUHU21623XXSP,2013-03-04 14:46:00,
2013-03-04 09:51:00,31.1,26.0,29.60,WSW,247,2.6,9.0,81,0.00,,,0.00,WUHU21623XXSP,2013-03-04 14:51:00,
2013-03-04 09:56:00,31.5,26.3,29.60,WSW,247,3.5,11.2,81,0.00,,,0.00,WUHU21623XXSP,2013-03-04 14:56:00,
2013-03-04 10:01:00,31.3,26.1,29.60,WSW,247,3.7,12.1,81,0.00,,,0.00,WUHU21623XXSP,2013-03-04 15:01:00,
2013-03-04 10:06:00,30.9,25.3,29.60,WNW,292,2.1,12.1,80,0.00,,,0.00,WUHU21623XXSP,2013-03-04 15:06:00,
2013-03-04 10:11:00,30.9,25.3,29.60,West,270,6.2,11.2,80,0.00,,,0.00,WUHU21623XXSP,2013-03-04 15:11:00,
2013-03-04 10:16:00,30.9,25.8,29.60,SSW,202,2.2,8.6,81,0.00,,,0.00,WUHU21623XXSP,2013-03-04 15:16:00,
2013-03-04 10:21:00,31.1,26.0,29.60,West,270,3.6,9.2,81,0.00,,,0.00,WUHU21623XXSP,2013-03-04 15:21:00,
2013-03-04 10:26:00,31.3,26.1,29.60,SW,225,3.9,9.2,81,0.00,,,0.00,WUHU21623XXSP,2013-03-04 15:26:00,
2013-03-04 10:31:00,31.5,26.3,29.60,West,270,6.1,13.4,81,0.00,,,0.00,WUHU21623XXSP,2013-03-04 15:31:00,
2013-03-04 10:36:00,31.6,26.0,29.60,West,270,4.8,13.8,80,0.00,,,0.00,WUHU21623XXSP,2013-03-04 15:36:00,
2013-03-04 10:41:00,31.6,26.0,29.60,WSW,247,3.4,13.8,80,0.00,,,0.00,WUHU21623XXSP,2013-03-04 15:41:00,
2013-03-04 10:46:00,31.6,26.0,29.60,WNW,292,1.5,11.3,80,0.00,,,0.00,WUHU21623XXSP,2013-03-04 15:46:00,
2013-03-04 10:51:00,31.8,26.2,29.60,West,270,4.5,11.2,80,0.00,,,0.00,WUHU21623XXSP,2013-03-04 15:51:00,
2013-03-04 10:56:00,31.8,26.2,29.60,West,270,0.3,11.1,80,0.00,,,0.00,WUHU21623XXSP,2013-03-04 15:56:00,
2013-03-04 11:01:00,32.2,26.6,29.60,SW,225,6.9,11.1,80,0.00,,,0.00,WUHU21623XXSP,2013-03-04 16:01:00,
2013-03-04 11:06:00,32.4,26.8,29.60,West,270,1.1,8.9,80,0.00,,,0.00,WUHU21623XXSP,2013-03-04 16:06:00,
2013-03-04 11:11:00,32.7,27.1,29.60,WSW,247,4.9,10.4,80,0.00,,,0.00,WUHU21623XXSP,2013-03-04 16:11:00,
2013-03-04 11:16:00,32.7,26.6,29.60,West,270,4.3,11.3,78,0.00,,,0.00,WUHU21623XXSP,2013-03-04 16:16:00,
2013-03-04 11:21:00,32.7,26.6,29.59,West,270,6.6,15.2,78,0.00,,,0.00,WUHU21623XXSP,2013-03-04 16:21:00,
2013-03-04 11:26:00,32.7,26.6,29.59,West,270,7.5,15.2,78,0.00,,,0.00,WUHU21623XXSP,2013-03-04 16:26:00,
2013-03-04 11:31:00,32.7,26.6,29.59,West,270,7.3,11.0,78,0.00,,,0.00,WUHU21623XXSP,2013-03-04 16:31:00,
2013-03-04 11:36:00,32.5,26.0,29.59,West,270,11.8,18.1,77,0.00,,,0.00,WUHU21623XXSP,2013-03-04 16:36:00,
2013-03-04 11:41:00,32.2,25.7,29.59,West,270,7.3,18.1,77,0.00,,,0.00,WUHU21623XXSP,2013-03-04 16:41:00,
2013-03-04 11:46:00,32.2,26.1,29.59,West,270,8.6,16.1,78,0.00,,,0.00,WUHU21623XXSP,2013-03-04 16:46:00,
2013-03-04 11:51:00,32.2,26.1,29.59,West,270,5.8,13.5,78,0.00,,,0.00,WUHU21623XXSP,2013-03-04 16:51:00,
2013-03-04 11:56:00,32.2,26.1,29.59,WSW,247,5.4,13.5,78,0.00,,,0.00,WUHU21623XXSP,2013-03-04 16:56:00,
2013-03-04 12:01:00,32.2,26.6,29.59,WNW,292,3.8,12.7,80,0.00,,,0.00,WUHU21623XXSP,2013-03-04 17:01:00,
2013-03-04 12:06:00,32.2,26.6,29.59,West,270,4.1,11.0,80,0.00,,,0.00,WUHU21623XXSP,2013-03-04 17:06:00,
2013-03-04 12:11:00,32.5,26.9,29.59,WSW,247,7.4,9.7,80,0.00,,,0.00,WUHU21623XXSP,2013-03-04 17:11:00,
2013-03-04 12:16:00,32.7,27.1,29.58,WSW,247,4.2,12.9,80,0.00,,,0.00,WUHU21623XXSP,2013-03-04 17:16:00,
2013-03-04 12:21:00,32.9,27.3,29.58,West,270,5.1,12.9,80,0.00,,,0.00,WUHU21623XXSP,2013-03-04 17:21:00,
2013-03-04 12:26:00,33.1,27.5,29.58,SW,225,10.3,12.3,80,0.00,,,0.00,WUHU21623XXSP,2013-03-04 17:26:00,
2013-03-04 12:31:00,33.3,27.7,29.58,West,270,5.7,12.3,80,0.00,,,0.00,WUHU21623XXSP,2013-03-04 17:31:00,
2013-03-04 12:36:00,33.4,27.8,29.58,WSW,247,5.4,12.8,80,0.00,,,0.00,WUHU21623XXSP,2013-03-04 17:36:00,
2013-03-04 12:41:00,33.8,27.7,29.58,West,270,9.9,16.5,78,0.00,,,0.00,WUHU21623XXSP,2013-03-04 17:41:00,
2013-03-04 12:46:00,34.0,27.9,29.58,WSW,247,5.9,16.5,78,0.00,,,0.00,WUHU21623XXSP,2013-03-04 17:46:00,
2013-03-04 12:51:00,34.2,28.1,29.57,WSW,247,9.1,15.6,78,0.00,,,0.00,WUHU21623XXSP,2013-03-04 17:51:00,
2013-03-04 12:56:00,34.3,27.7,29.57,West,270,8.5,20.4,77,0.00,,,0.00,WUHU21623XXSP,2013-03-04 17:56:00,
2013-03-04 13:01:00,34.3,27.7,29.57,WSW,247,7.6,20.4,77,0.00,,,0.00,WUHU21623XXSP,2013-03-04 18:01:00,
2013-03-04 13:06:00,34.5,27.9,29.57,WSW,247,9.3,16.4,77,0.00,,,0.00,WUHU21623XXSP,2013-03-04 18:06:00,
2013-03-04 13:11:00,34.3,27.7,29.57,WSW,247,10.7,16.4,77,0.00,,,0.00,WUHU21623XXSP,2013-03-04 18:11:00,
2013-03-04 13:16:00,34.3,27.7,29.57,WSW,247,10.1,16.4,77,0.00,,,0.00,WUHU21623XXSP,2013-03-04 18:16:00,
2013-03-04 13:21:00,34.5,27.9,29.57,WSW,247,5.7,14.9,77,0.00,,,0.00,WUHU21623XXSP,2013-03-04 18:21:00,
2013-03-04 13:26:00,34.7,28.1,29.57,West,270,8.0,11.1,77,0.00,,,0.00,WUHU21623XXSP,2013-03-04 18:26:00,
2013-03-04 13:29:00,34.7,28.1,29.57,SW,225,5.9,11.1,77,0.00,,,0.00,WUHU21623XXSP,2013-03-04 18:29:00,
2013-03-04 13:30:00,34.7,28.1,29.57,SSW,202,4.0,11.1,77,0.00,,,0.00,WUHU21623XXSP,2013-03-04 18:30:00,
2013-03-04 13:35:00,34.9,28.3,29.58,WSW,247,4.2,11.1,77,0.00,,,0.00,WUHU21623XXSP,2013-03-04 18:35:00,
2013-03-04 13:40:00,34.9,28.3,29.57,WSW,247,3.0,12.9,77,0.00,,,0.00,WUHU21623XXSP,2013-03-04 18:40:00,
2013-03-04 13:45:00,35.1,28.5,29.58,West,270,1.4,12.9,77,0.00,,,0.00,WUHU21623XXSP,2013-03-04 18:45:00,
2013-03-04 13:50:00,35.1,28.5,29.58,SW,225,0.0,10.6,77,0.00,,,0.00,WUHU21623XXSP,2013-03-04 18:50:00,
2013-03-04 13:55:00,34.7,28.1,29.58,West,270,5.6,10.6,77,0.00,,,0.00,WUHU21623XXSP,2013-03-04 18:55:00,
2013-03-04 14:00:00,34.9,28.3,29.58,SW,225,0.0,11.9,77,0.00,,,0.00,WUHU21623XXSP,2013-03-04 19:00:00,
2013-03-04 14:05:00,34.9,28.3,29.58,SSE,157,5.5,11.9,77,0.00,,,0.00,WUHU21623XXSP,2013-03-04 19:05:00,
2013-03-04 14:10:00,34.7,27.6,29.58,SW,225,4.4,12.4,75,0.00,,,0.00,WUHU21623XXSP,2013-03-04 19:10:00,
2013-03-04 14:15:00,34.7,27.6,29.58,SSW,202,0.0,12.4,75,0.00,,,0.00,WUHU21623XXSP,2013-03-04 19:15:00,
2013-03-04 14:20:00,34.5,27.4,29.58,SW,225,4.2,11.2,75,0.00,,,0.00,WUHU21623XXSP,2013-03-04 19:20:00,
2013-03-04 14:25:00,34.3,27.7,29.58,West,270,8.4,10.1,77,0.00,,,0.00,WUHU21623XXSP,2013-03-04 19:25:00,
2013-03-04 14:30:00,34.3,27.2,29.58,WSW,247,3.5,10.6,75,0.00,,,0.00,WUHU21623XXSP,2013-03-04 19:30:00,
2013-03-04 14:35:00,34.3,27.7,29.59,SW,225,4.6,10.8,77,0.00,,,0.00,WUHU21623XXSP,2013-03-04 19:35:00,
2013-03-04 14:40:00,34.3,27.7,29.59,SW,225,5.0,10.8,77,0.00,,,0.00,WUHU21623XXSP,2013-03-04 19:40:00,
2013-03-04 14:45:00,34.2,27.1,29.59,WSW,247,5.8,14.4,75,0.00,,,0.00,WUHU21623XXSP,2013-03-04 19:45:00,
2013-03-04 14:50:00,34.2,27.1,29.59,SW,225,1.2,14.4,75,0.00,,,0.00,WUHU21623XXSP,2013-03-04 19:50:00,
2013-03-04 14:55:00,34.2,27.1,29.59,West,270,4.8,10.4,75,0.00,,,0.00,WUHU21623XXSP,2013-03-04 19:55:00,
2013-03-04 15:00:00,34.0,27.0,29.60,WSW,247,2.7,10.4,75,0.00,,,0.00,WUHU21623XXSP,2013-03-04 20:00:00,
2013-03-04 15:05:00,34.0,27.0,29.60,WSW,247,4.7,9.9,75,0.00,,,0.00,WUHU21623XXSP,2013-03-04 20:05:00,
2013-03-04 15:10:00,33.4,26.4,29.60,West,270,4.9,10.3,75,0.00,,,0.00,WUHU21623XXSP,2013-03-04 20:10:00,
2013-03-04 15:15:00,33.3,26.3,29.61,SSW,202,2.2,10.3,75,0.00,,,0.00,WUHU21623XXSP,2013-03-04 20:15:00,
2013-03-04 15:20:00,33.3,26.3,29.60,SW,225,5.4,10.7,75,0.00,,,0.00,WUHU21623XXSP,2013-03-04 20:20:00,
2013-03-04 15:25:00,32.9,25.9,29.61,SSE,157,2.5,15.2,75,0.00,,,0.00,WUHU21623XXSP,2013-03-04 20:25:00,
2013-03-04 15:30:00,32.7,25.7,29.61,SW,225,3.7,18.8,75,0.00,,,0.00,WUHU21623XXSP,2013-03-04 20:30:00,
2013-03-04 15:35:00,32.4,24.9,29.61,South,180,0.0,18.8,74,0.00,,,0.00,WUHU21623XXSP,2013-03-04 20:35:00,
2013-03-04 15:40:00,32.4,25.4,29.61,SW,225,0.0,8.8,75,0.00,,,0.00,WUHU21623XXSP,2013-03-04 20:40:00,
2013-03-04 15:45:00,32.2,25.2,29.61,WSW,247,1.4,8.8,75,0.00,,,0.00,WUHU21623XXSP,2013-03-04 20:45:00,
2013-03-04 15:50:00,32.2,25.7,29.62,WSW,247,3.9,8.1,77,0.00,,,0.00,WUHU21623XXSP,2013-03-04 20:50:00,
2013-03-04 15:55:00,31.6,25.1,29.62,WSW,247,0.9,8.1,77,0.00,,,0.00,WUHU21623XXSP,2013-03-04 20:55:00,
2013-03-04 16:00:00,31.6,25.1,29.62,SW,225,0.4,7.6,77,0.00,,,0.00,WUHU21623XXSP,2013-03-04 21:00:00,
2013-03-04 16:05:00,31.5,25.0,29.63,WSW,247,0.0,11.9,77,0.00,,,0.00,WUHU21623XXSP,2013-03-04 21:05:00,
2013-03-04 16:10:00,31.3,25.3,29.62,WNW,292,3.0,11.9,78,0.00,,,0.00,WUHU21623XXSP,2013-03-04 21:10:00,
2013-03-04 16:15:00,31.3,25.3,29.63,SW,225,0.0,5.5,78,0.00,,,0.00,WUHU21623XXSP,2013-03-04 21:15:00,
2013-03-04 16:20:00,31.1,25.1,29.63,WSW,247,2.9,6.8,78,0.00,,,0.00,WUHU21623XXSP,2013-03-04 21:20:00,
2013-03-04 16:25:00,31.1,25.5,29.63,West,270,5.8,9.1,80,0.00,,,0.00,WUHU21623XXSP,2013-03-04 21:25:00,
2013-03-04 16:30:00,30.7,25.1,29.64,SW,225,1.7,9.1,80,0.00,,,0.00,WUHU21623XXSP,2013-03-04 21:30:00,
2013-03-04 16:35:00,30.7,25.1,29.64,WSW,247,2.5,9.1,80,0.00,,,0.00,WUHU21623XXSP,2013-03-04 21:35:00,
2013-03-04 16:40:00,30.4,24.8,29.64,West,270,6.8,10.3,80,0.00,,,0.00,WUHU21623XXSP,2013-03-04 21:40:00,
2013-03-04 16:45:00,30.4,24.8,29.64,SW,225,3.1,11.5,80,0.00,,,0.00,WUHU21623XXSP,2013-03-04 21:45:00,
2013-03-04 16:50:00,30.0,24.9,29.65,SSW,202,3.4,11.5,81,0.00,,,0.00,WUHU21623XXSP,2013-03-04 21:50:00,
2013-03-04 16:55:00,29.8,24.7,29.65,WSW,247,9.0,10.3,81,0.00,,,0.00,WUHU21623XXSP,2013-03-04 21:55:00,
2013-03-04 17:00:00,29.7,24.6,29.65,WSW,247,6.3,11.7,81,0.00,,,0.00,WUHU21623XXSP,2013-03-04 22:00:00,
2013-03-04 17:05:00,29.5,24.8,29.65,West,270,5.0,12.3,83,0.00,,,0.00,WUHU21623XXSP,2013-03-04 22:05:00,
2013-03-04 17:10:00,29.3,25.0,29.65,West,270,1.2,12.8,84,0.00,,,0.00,WUHU21623XXSP,2013-03-04 22:10:00,
2013-03-04 17:15:00,28.9,24.7,29.66,SW,225,3.1,12.8,84,0.00,,,0.00,WUHU21623XXSP,2013-03-04 22:15:00,
2013-03-04 17:20:00,28.8,25.0,29.66,SW,225,7.9,10.9,86,0.00,,,0.00,WUHU21623XXSP,2013-03-04 22:20:00,
2013-03-04 17:25:00,28.6,24.8,29.66,SW,225,7.3,14.3,86,0.00,,,0.00,WUHU21623XXSP,2013-03-04 22:25:00,
2013-03-04 17:30:00,28.0,24.6,29.65,WSW,247,6.5,16.5,87,0.00,,,0.00,WUHU21623XXSP,2013-03-04 22:30:00,
2013-03-04 17:35:00,27.9,24.5,29.65,SW,225,8.6,16.5,87,0.00,,,0.00,WUHU21623XXSP,2013-03-04 22:35:00,
2013-03-04 17:40:00,27.7,24.3,29.66,West,270,4.4,12.9,87,0.00,,,0.00,WUHU21623XXSP,2013-03-04 22:40:00,
2013-03-04 17:45:00,27.5,24.1,29.66,West,270,8.8,12.9,87,0.00,,,0.00,WUHU21623XXSP,2013-03-04 22:45:00,
2013-03-04 17:50:00,27.5,24.1,29.66,WNW,292,6.6,12.5,87,0.00,,,0.00,WUHU21623XXSP,2013-03-04 22:50:00,
2013-03-04 17:55:00,27.3,23.9,29.67,SW,225,4.5,12.5,87,0.00,,,0.00,WUHU21623XXSP,2013-03-04 22:55:00,
2013-03-04 18:00:00,27.3,23.9,29.67,West,270,7.7,11.5,87,0.00,,,0.00,WUHU21623XXSP,2013-03-04 23:00:00,
2013-03-04 18:05:00,27.3,23.9,29.67,SW,225,6.7,13.8,87,0.00,,,0.00,WUHU21623XXSP,2013-03-04 23:05:00,
2013-03-04 18:10:00,27.1,23.7,29.68,SW,225,4.5,13.8,87,0.00,,,0.00,WUHU21623XXSP,2013-03-04 23:10:00,
2013-03-04 18:15:00,27.0,23.2,29.67,West,270,6.7,12.0,86,0.00,,,0.00,WUHU21623XXSP,2013-03-04 23:15:00,
2013-03-04 18:20:00,27.0,23.2,29.67,WSW,247,3.7,10.7,86,0.00,,,0.00,WUHU21623XXSP,2013-03-04 23:20:00,
2013-03-04 18:25:00,27.0,23.2,29.68,West,270,2.7,11.9,86,0.00,,,0.00,WUHU21623XXSP,2013-03-04 23:25:00,
2013-03-04 18:30:00,27.0,23.2,29.68,West,270,6.1,13.2,86,0.00,,,0.00,WUHU21623XXSP,2013-03-04 23:30:00,
2013-03-04 18:35:00,27.0,23.2,29.69,West,270,5.1,13.2,86,0.00,,,0.00,WUHU21623XXSP,2013-03-04 23:35:00,
2013-03-04 18:40:00,26.8,23.0,29.69,WSW,247,9.2,11.5,86,0.00,,,0.00,WUHU21623XXSP,2013-03-04 23:40:00,
2013-03-04 18:45:00,26.6,22.8,29.69,WSW,247,10.1,15.4,86,0.00,,,0.00,WUHU21623XXSP,2013-03-04 23:45:00,
2013-03-04 18:50:00,26.4,22.6,29.69,West,270,8.9,16.6,86,0.00,,,0.00,WUHU21623XXSP,2013-03-04 23:50:00,
2013-03-04 18:55:00,26.2,22.4,29.69,NNW,337,4.7,16.6,86,0.00,,,0.00,WUHU21623XXSP,2013-03-04 23:55:00,
2013-03-04 19:00:00,26.1,22.3,29.69,SW,225,7.8,13.8,86,0.00,,,0.00,WUHU21623XXSP,2013-03-05 00:00:00,
2013-03-04 19:05:00,26.1,22.3,29.69,West,270,7.2,13.8,86,0.00,,,0.00,WUHU21623XXSP,2013-03-05 00:05:00,
2013-03-04 19:10:00,26.1,22.3,29.70,WSW,247,3.4,15.9,86,0.00,,,0.00,WUHU21623XXSP,2013-03-05 00:10:00,
2013-03-04 19:15:00,26.1,22.3,29.71,West,270,2.9,15.9,86,0.00,,,0.00,WUHU21623XXSP,2013-03-05 00:15:00,
2013-03-04 19:20:00,26.1,22.3,29.71,WSW,247,1.1,12.7,86,0.00,,,0.00,WUHU21623XXSP,2013-03-05 00:20:00,
2013-03-04 19:25:00,26.1,22.3,29.71,West,270,3.3,13.4,86,0.00,,,0.00,WUHU21623XXSP,2013-03-05 00:25:00,
2013-03-04 19:30:00,26.1,22.3,29.71,WSW,247,7.5,13.4,86,0.00,,,0.00,WUHU21623XXSP,2013-03-05 00:30:00,
2013-03-04 19:35:00,26.1,22.3,29.71,West,270,3.9,15.9,86,0.00,,,0.00,WUHU21623XXSP,2013-03-05 00:35:00,
2013-03-04 19:40:00,26.1,22.3,29.71,West,270,7.7,15.9,86,0.00,,,0.00,WUHU21623XXSP,2013-03-05 00:40:00,
2013-03-04 19:45:00,26.1,21.9,29.71,WNW,292,2.9,15.2,84,0.00,,,0.00,WUHU21623XXSP,2013-03-05 00:45:00,
2013-03-04 19:50:00,25.9,21.7,29.71,West,270,3.8,15.2,84,0.00,,,0.00,WUHU21623XXSP,2013-03-05 00:50:00,
2013-03-04 19:55:00,25.7,21.5,29.71,West,270,2.1,15.2,84,0.00,,,0.00,WUHU21623XXSP,2013-03-05 00:55:00,
2013-03-04 20:00:00,26.1,21.9,29.72,WNW,292,1.8,15.2,84,0.00,,,0.00,WUHU21623XXSP,2013-03-05 01:00:00,
2013-03-04 20:05:00,25.9,21.7,29.72,West,270,4.2,10.5,84,0.00,,,0.00,WUHU21623XXSP,2013-03-05 01:05:00,
2013-03-04 20:10:00,25.9,21.7,29.72,WNW,292,5.5,10.3,84,0.00,,,0.00,WUHU21623XXSP,2013-03-05 01:10:00,
2013-03-04 20:15:00,25.9,21.7,29.73,WNW,292,2.4,10.3,84,0.00,,,0.00,WUHU21623XXSP,2013-03-05 01:15:00,
2013-03-04 20:20:00,25.9,21.7,29.73,WSW,247,5.1,12.1,84,0.00,,,0.00,WUHU21623XXSP,2013-03-05 01:20:00,
2013-03-04 20:25:00,25.9,21.7,29.73,SW,225,0.0,12.3,84,0.00,,,0.00,WUHU21623XXSP,2013-03-05 01:25:00,
2013-03-04 20:30:00,25.9,21.7,29.73,WSW,247,0.0,12.3,84,0.00,,,0.00,WUHU21623XXSP,2013-03-05 01:30:00,
2013-03-04 20:35:00,25.9,21.7,29.73,WSW,247,0.0,6.4,84,0.00,,,0.00,WUHU21623XXSP,2013-03-05 01:35:00,
2013-03-04 20:40:00,25.7,21.5,29.74,WSW,247,0.0,5.0,84,0.00,,,0.00,WUHU21623XXSP,2013-03-05 01:40:00,
2013-03-04 20:45:00,25.9,21.7,29.74,ESE,112,0.0,7.1,84,0.00,,,0.00,WUHU21623XXSP,2013-03-05 01:45:00,
2013-03-04 20:50:00,25.7,21.5,29.73,WSW,247,4.4,8.5,84,0.00,,,0.00,WUHU21623XXSP,2013-03-05 01:50:00,
2013-03-04 20:55:00,25.7,21.5,29.74,West,270,1.9,8.5,84,0.00,,,0.00,WUHU21623XXSP,2013-03-05 01:55:00,
2013-03-04 21:00:00,25.7,21.5,29.74,SSW,202,3.7,12.2,84,0.00,,,0.00,WUHU21623XXSP,2013-03-05 02:00:00,
2013-03-04 21:05:00,25.5,21.3,29.75,SSW,202,0.0,12.2,84,0.00,,,0.00,WUHU21623XXSP,2013-03-05 02:05:00,
2013-03-04 21:10:00,25.7,21.5,29.74,SW,225,8.2,12.6,84,0.00,,,0.00,WUHU21623XXSP,2013-03-05 02:10:00,
2013-03-04 21:15:00,25.7,21.9,29.75,West,270,3.5,12.6,86,0.00,,,0.00,WUHU21623XXSP,2013-03-05 02:15:00,
2013-03-04 21:20:00,25.7,21.9,29.75,SSW,202,5.1,12.6,86,0.00,,,0.00,WUHU21623XXSP,2013-03-05 02:20:00,
2013-03-04 21:25:00,25.7,21.9,29.76,SW,225,0.0,9.2,86,0.00,,,0.00,WUHU21623XXSP,2013-03-05 02:25:00,
2013-03-04 21:30:00,25.7,21.9,29.76,SSW,202,3.2,9.2,86,0.00,,,0.00,WUHU21623XXSP,2013-03-05 02:30:00,
2013-03-04 21:35:00,25.7,21.9,29.74,WSW,247,6.4,11.0,86,0.00,,,0.00,WUHU21623XXSP,2013-03-05 02:35:00,
2013-03-04 21:40:00,25.5,21.7,29.74,West,270,9.2,16.6,86,0.00,,,0.00,WUHU21623XXSP,2013-03-05 02:40:00,
2013-03-04 21:45:00,25.5,21.7,29.74,West,270,7.7,16.6,86,0.00,,,0.00,WUHU21623XXSP,2013-03-05 02:45:00,
2013-03-04 21:50:00,25.5,21.7,29.74,West,270,8.4,18.5,86,0.00,,,0.00,WUHU21623XXSP,2013-03-05 02:50:00,
2013-03-04 21:55:00,25.5,21.7,29.74,West,270,6.3,18.5,86,0.00,,,0.00,WUHU21623XXSP,2013-03-05 02:55:00,
2013-03-04 22:00:00,25.3,21.5,29.74,WNW,292,4.3,12.0,86,0.00,,,0.00,WUHU21623XXSP,2013-03-05 03:00:00,
2013-03-04 22:05:00,25.2,21.4,29.74,WSW,247,5.7,12.0,86,0.00,,,0.00,WUHU21623XXSP,2013-03-05 03:05:00,
2013-03-04 22:10:00,25.2,21.4,29.75,West,270,3.6,10.5,86,0.00,,,0.00,WUHU21623XXSP,2013-03-05 03:10:00,
2013-03-04 22:15:00,25.2,21.4,29.75,West,270,2.7,8.7,86,0.00,,,0.00,WUHU21623XXSP,2013-03-05 03:15:00,
2013-03-04 22:20:00,25.2,21.4,29.75,West,270,0.0,7.8,86,0.00,,,0.00,WUHU21623XXSP,2013-03-05 03:20:00,
2013-03-04 22:25:00,25.2,21.4,29.76,WNW,292,6.1,10.2,86,0.00,,,0.00,WUHU21623XXSP,2013-03-05 03:25:00,
2013-03-04 22:30:00,25.2,21.4,29.76,SW,225,6.7,13.8,86,0.00,,,0.00,WUHU21623XXSP,2013-03-05 03:30:00,
2013-03-04 22:35:00,25.2,21.4,29.76,West,270,5.6,13.8,86,0.00,,,0.00,WUHU21623XXSP,2013-03-05 03:35:00,
2013-03-04 22:40:00,25.2,21.4,29.76,West,270,6.2,15.9,86,0.00,,,0.00,WUHU21623XXSP,2013-03-05 03:40:00,
2013-03-04 22:45:00,25.2,21.4,29.76,West,270,7.4,15.9,86,0.00,,,0.00,WUHU21623XXSP,2013-03-05 03:45:00,
2013-03-04 22:50:00,25.2,21.4,29.76,WSW,247,5.5,10.5,86,0.00,,,0.00,WUHU21623XXSP,2013-03-05 03:50:00,
2013-03-04 22:55:00,25.3,21.5,29.77,West,270,5.8,11.1,86,0.00,,,0.00,WUHU21623XXSP,2013-03-05 03:55:00,
2013-03-04 23:00:00,25.3,21.5,29.76,West,270,6.8,15.2,86,0.00,,,0.00,WUHU21623XXSP,2013-03-05 04:00:00,
2013-03-04 23:05:00,25.2,21.4,29.76,WNW,292,7.3,15.2,86,0.00,,,0.00,WUHU21623XXSP,2013-03-05 04:05:00,
2013-03-04 23:10:00,25.2,21.4,29.76,West,270,6.5,14.8,86,0.00,,,0.00,WUHU21623XXSP,2013-03-05 04:10:00,
2013-03-04 23:15:00,25.2,21.4,29.76,West,270,2.9,11.5,86,0.00,,,0.00,WUHU21623XXSP,2013-03-05 04:15:00,
2013-03-04 23:20:00,25.0,21.2,29.75,West,270,5.3,11.5,86,0.00,,,0.00,WUHU21623XXSP,2013-03-05 04:20:00,
2013-03-04 23:25:00,25.0,21.2,29.75,West,270,7.7,13.5,86,0.00,,,0.00,WUHU21623XXSP,2013-03-05 04:25:00,
2013-03-04 23:30:00,25.0,21.2,29.75,WSW,247,2.5,13.5,86,0.00,,,0.00,WUHU21623XXSP,2013-03-05 04:30:00,
2013-03-04 23:35:00,25.0,21.2,29.76,WNW,292,5.7,13.2,86,0.00,,,0.00,WUHU21623XXSP,2013-03-05 04:35:00,
2013-03-04 23:40:00,25.0,20.8,29.76,West,270,0.0,13.2,84,0.00,,,0.00,WUHU21623XXSP,2013-03-05 04:40:00,
2013-03-04 23:45:00,25.0,21.2,29.76,West,270,2.9,9.4,86,0.00,,,0.00,WUHU21623XXSP,2013-03-05 04:45:00,
2013-03-04 23:50:00,24.8,21.0,29.76,West,270,3.1,7.2,86,0.00,,,0.00,WUHU21623XXSP,2013-03-05 04:50:00,
2013-03-04 23:55:00,25.0,21.2,29.76,West,270,3.3,8.6,86,0.00,,,0.00,WUHU21623XXSP,2013-03-05 04:55:00,